Saint Martin Island, Sint Maarten

5:53 AM AST on December 08, 2016 (GMT -0400)
Princess Juliana International

Weather History for TNCM - February, 2013

Change the Weather History Date:

Tuesday, February 19, 2013

  Actual Average Record
Temperature  
Mean Temperature 78 °F -  
Max Temperature 82 °F 82 °F 86 °F (2007)
Min Temperature 73 °F 72 °F 71 °F (2001)
Cooling Degree Days 12    
Growing Degree Days 28 (Base 50)    
Moisture  
Dew Point 67 °F    
Average Humidity 65    
Maximum Humidity 78    
Minimum Humidity 51    
Precipitation  
Precipitation 0.00 in 0.06 in - ()
Sea Level Pressure  
Sea Level Pressure 30.06 in    
Wind  
Wind Speed 13 mph ()    
Max Wind Speed 20 mph    
Max Gust Speed 29 mph    
Visibility 8.3 miles    
Events Rain    
Averages and records for this station are not official NWS values.
T = Trace of Precipitation, MM = Missing Value Source: Averaged Metar Reports

Daily Weather History Graph

Daily Weather History Graph

Search for Another Location

Airport or City:

Trip Planner

Search our weather history database for the weather conditions in past years. The results will help you decide how hot, cold, wet, or windy it might be!

Date:

Astronomy

Feb. 19, 2013 Rise Set
Actual Time 6:37 AM AST 6:15 PM AST
Civil Twilight 6:15 AM AST 6:37 PM AST
Nautical Twilight 5:49 AM AST 7:02 PM AST
Astronomical Twilight 5:24 AM AST 7:28 PM AST
Moon 1:08 PM AST (2/19) 1:41 AM AST (2/19)
Length of Visible Light 12h 22m
Length of Day
11h 37m
Waxing Gibbous, 67% of the Moon is Illuminated
Feb 19
Waxing Gibbous
Feb 25
Full
Mar 4
Last Quarter
Mar 11
New
Mar 19
First Quarter

Hourly Weather History & Observations

Time (AST) Temp. Heat Index Dew Point Humidity Pressure Visibility Wind Dir Wind Speed Gust Speed Precip Events Conditions
12:00 AM 77.0 °F - 66.2 °F 69% 30.09 in 6.2 mi East 11.5 mph - N/A   Partly Cloudy
1:00 AM 77.0 °F - 66.2 °F 69% 30.06 in 6.2 mi ESE 11.5 mph - N/A   Scattered Clouds
2:00 AM 77 °F - 68 °F 67% 30.06 in 22 mi ESE 15.0 mph - -   Partly Cloudy
2:00 AM 77.0 °F - 68.0 °F 74% 30.06 in 6.2 mi ESE 15.0 mph - N/A   Scattered Clouds
3:00 AM 77.0 °F - 68.0 °F 74% 30.04 in 6.2 mi ESE 13.8 mph - N/A Rain Light Rain Showers
4:00 AM 77.0 °F - 68.0 °F 74% 30.04 in 6.2 mi ESE 15.0 mph - N/A   Partly Cloudy
5:00 AM 77 °F - 67 °F 64% 30.05 in 9 mi ESE 17.3 mph - -   Mostly Cloudy
5:00 AM 77.0 °F - 66.2 °F 69% 30.04 in 6.2 mi ESE 17.3 mph - N/A Rain Light Rain Showers
6:00 AM 77.0 °F - 66.2 °F 69% 30.04 in 6.2 mi ESE 16.1 mph - N/A   Mostly Cloudy
7:00 AM 77.0 °F - 64.4 °F 65% 30.06 in 6.2 mi East 15.0 mph - N/A   Partly Cloudy
8:00 AM 79 °F - 66 °F 56% 30.10 in 19 mi ESE 16.1 mph - -  
8:00 AM 78.8 °F - 66.2 °F 65% 30.09 in 6.2 mi East 16.1 mph - N/A   Scattered Clouds
9:00 AM 78.8 °F - 66.2 °F 65% 30.09 in 6.2 mi East 15.0 mph - N/A   Mostly Cloudy
10:00 AM 80.6 °F 81.8 °F 62.6 °F 54% 30.12 in 6.2 mi East 15.0 mph - N/A   Mostly Cloudy
11:00 AM 80 °F - 68 °F 58% 30.12 in 19 mi ESE 12.7 mph - -   Mostly Cloudy
11:00 AM 80.6 °F 83.2 °F 68.0 °F 65% 30.09 in 6.2 mi East 13.8 mph - N/A   Mostly Cloudy
12:00 PM 80.6 °F 83.2 °F 68.0 °F 65% 30.09 in 6.2 mi East 15.0 mph - N/A   Scattered Clouds
1:00 PM 80.6 °F 83.2 °F 68.0 °F 65% 30.06 in 6.2 mi East 13.8 mph 26.5 mph N/A   Scattered Clouds
2:00 PM 81 °F - 66 °F 52% 30.06 in 19 mi East 19.6 mph - -   Partly Cloudy
2:00 PM 80.6 °F 82.7 °F 66.2 °F 61% 30.04 in 6.2 mi East 19.6 mph - N/A   Scattered Clouds
3:00 PM 82.4 °F 84.6 °F 66.2 °F 58% 30.04 in 6.2 mi ESE 13.8 mph - N/A   Partly Cloudy
4:00 PM 82.4 °F 83.4 °F 62.6 °F 51% 30.01 in 6.2 mi East 17.3 mph - N/A   Partly Cloudy
5:00 PM 80 °F - 66 °F 54% 30.04 in 19 mi East 11.5 mph - -   Scattered Clouds
5:00 PM 80.6 °F 82.7 °F 66.2 °F 61% 30.04 in 6.2 mi East 11.5 mph - N/A   Partly Cloudy
6:00 PM 78.8 °F - 68.0 °F 69% 30.04 in 6.2 mi East 15.0 mph 28.8 mph N/A   Scattered Clouds
7:00 PM 77.0 °F - 66.2 °F 69% 30.04 in 6.2 mi East 11.5 mph - N/A   Partly Cloudy
9:00 PM 77.0 °F - 68.0 °F 74% 30.06 in 6.2 mi East 18.4 mph - N/A   Scattered Clouds
10:00 PM 73.4 °F - 66.2 °F 78% 30.09 in 6.2 mi East 13.8 mph - N/A   Scattered Clouds
11:00 PM 76 °F - 69 °F 72% 30.09 in 12 mi East 10.4 mph - - Rain Light Rain Showers
11:00 PM 77.0 °F - 68.0 °F 74% 30.06 in 6.2 mi East 10.4 mph - N/A Rain Light Rain Showers